Location: Buchloe
(48.0161°N, 10.7316°E)
Time: 03:37:59
(UTC+02:00)

ISS - Pass Details

Date: 10 July 2025
Orbit: 413 x 417 km, 51.6° (Epoch: 12 July)

Event Time Altitude Azimuth Distance (km) Brightness Sun altitude
Rises 02:48:36 0° 292° (WNW) 2,357 0.1 -17.2°
Reaches altitude 10° 02:50:42 10° 293° (WNW) 1,493 -0.9 -17.0°
Maximum altitude 02:54:03 89° 25° (NNE) 421 -3.9 -16.8°
Drops below altitude 10° 02:57:24 10° 113° (ESE) 1,489 -1.0 -16.6°
Sets 02:59:29 0° 114° (ESE) 2,350 0.1 -16.5°
